Location: Unspecified
(45.4615°N, 74.0512°W)
Time: 16:39:07
(UTC-04:00)

CZ-3 Stage 3 - Visible Passes

Search period start: 22 September 2018 00:00
Search period end: 02 October 2018 00:00
Orbit: 368 x 34824 km, 30.5° (Epoch: 20 September)

Date Brightness Start Highest point End Pass type
(mag) Time Alt. Az. Time Alt. Az. Time Alt. Az.
22 Sep 7.3 16:43:17 10° S 22:44:05 66° SSW 01:58:04 10° SE visible
23 Sep 8.1 14:20:55 10° ESE 20:19:30 50° ESE 22:12:09 10° E visible
24 Sep 6.7 20:19:51 10° SW 22:49:01 38° WSW 05:20:30 10° SSW visible
25 Sep 7.3 16:32:29 10° S 22:28:18 67° SSW 01:47:53 10° SE visible
26 Sep 8.1 14:07:15 10° ESE 20:07:42 50° ESE 22:01:47 10° E visible
27 Sep 6.7 20:08:55 10° SW 22:38:00 39° WSW 05:10:08 10° SSW visible
28 Sep 7.3 16:21:42 10° S 22:13:32 68° SSW 01:37:41 10° SE visible
29 Sep 8.1 13:53:38 10° ESE 19:55:54 50° ESE 21:51:25 10° E visible
30 Sep 6.8 19:58:00 10° SW 22:26:59 40° WSW 04:59:46 10° SSW visible
